GFSWCAN_850_thetae_198.txt.gz
Theta_e
313 318 321 319 315 316 320 320 320 320 321 322 321 320 316 313 314 314 318 321 319 321 322 322 324 325 326 326 328 327 327 329 330 329 329 330 330 329 330 330 330 333 335 336 339 340 341 335 335 341 344 341 342 342
315 316 317 316 315 316 319 319 319 320 321 322 321 319 316 313 313 313 318 319 318 319 321 321 321 321 321 323 324 324 325 326 327 328 329 329 331 331 332 333 332 333 334 336 336 341 334 335 337 335 337 338 338 338
318 317 317 316 316 318 320 319 319 320 320 320 321 318 315 313 312 312 313 317 317 319 320 322 323 324 323 321 321 321 322 326 325 326 326 327 328 328 329 328 329 329 329 331 333 335 331 331 334 331 331 333 333 335
319 319 319 318 317 318 319 320 319 319 320 321 320 317 314 312 311 311 311 314 317 317 320 324 323 323 322 321 321 321 322 322 324 324 324 326 327 325 327 327 328 327 327 329 330 330 328 330 334 332 331 331 332 332
318 319 319 318 319 319 320 319 318 319 319 320 319 316 313 312 310 310 311 315 317 317 320 319 318 319 319 320 321 322 322 322 322 323 325 325 324 325 325 326 326 324 327 327 328 327 326 327 329 329 326 327 329 330
317 319 318 317 318 319 319 319 318 319 319 319 317 315 312 311 309 311 318 318 316 317 316 319 320 321 321 321 322 323 323 324 323 323 324 323 323 324 326 327 324 324 324 325 326 325 326 325 326 327 327 328 327 328
315 316 317 317 318 318 318 319 319 319 318 317 316 314 312 309 308 312 316 316 315 313 316 318 321 322 321 322 322 323 324 324 324 324 323 324 324 324 326 328 325 324 325 326 325 325 326 327 327 327 325 325 325 326
314 316 316 317 318 319 318 319 319 318 317 316 314 311 309 308 307 310 311 313 312 313 315 318 321 322 322 322 323 324 325 324 324 324 324 324 324 324 327 323 326 324 323 324 324 324 324 324 325 327 326 325 325 325
314 315 316 318 318 319 317 316 317 317 316 315 312 309 307 310 314 318 316 314 312 315 318 319 322 324 323 322 323 323 324 325 323 325 325 324 325 327 325 326 326 323 323 323 323 323 324 324 324 327 327 326 326 325
315 317 318 318 317 317 317 316 317 315 314 312 309 313 314 317 315 313 314 315 316 316 316 316 318 322 321 322 323 324 325 325 326 324 324 325 326 326 325 323 322 321 320 321 323 324 324 324 324 325 327 326 327 329
316 317 317 317 317 316 315 316 315 314 312 309 311 314 316 313 314 316 317 318 318 319 317 318 318 321 321 323 326 325 325 324 326 327 327 326 328 328 323 323 322 322 323 324 324 324 324 324 325 324 326 326 328 330
316 316 316 316 316 315 315 315 314 313 309 312 312 313 314 315 315 316 319 319 319 320 319 320 319 321 323 323 324 323 324 323 326 324 325 327 330 326 324 324 324 324 326 326 326 326 325 326 326 326 326 325 326 329
315 316 316 315 315 314 315 314 313 310 309 308 309 313 314 315 316 317 319 321 322 320 321 321 323 324 323 323 321 322 323 325 323 326 326 326 326 326 325 325 323 325 325 327 327 326 327 327 327 326 326 325 325 328
315 316 315 314 314 315 313 312 310 308 310 312 313 315 315 317 317 318 319 320 321 322 323 323 325 325 324 324 322 324 324 324 327 327 327 330 327 324 325 325 324 325 325 325 327 330 330 329 328 328 328 325 325 327
315 315 314 314 314 312 312 310 307 306 310 313 313 317 317 315 317 317 318 318 319 320 321 323 324 324 325 325 323 325 326 328 327 329 329 327 325 325 324 323 323 324 323 325 328 331 330 328 328 329 326 326 326 326
313 313 313 313 312 312 308 306 305 308 310 312 313 316 316 317 317 317 316 317 317 319 320 322 324 326 326 325 325 327 326 328 330 329 329 328 327 326 324 323 322 322 322 325 329 330 330 330 329 328 326 327 327 329
312 312 312 312 311 309 305 305 307 309 311 313 314 315 316 316 317 316 318 317 319 320 323 322 325 326 326 328 328 328 328 328 325 325 327 325 326 326 324 321 320 322 323 325 330 330 330 331 331 329 329 330 331 329
312 312 312 311 309 305 306 307 308 308 311 312 314 314 314 315 316 316 316 316 319 320 319 322 321 326 326 327 328 326 324 323 324 324 326 324 326 325 323 323 321 322 324 327 330 331 326 326 330 330 329 332 333 335
312 312 311 310 306 306 307 308 309 312 312 313 313 314 314 315 314 315 316 316 317 319 319 321 324 325 326 324 324 324 323 323 323 323 325 325 328 324 322 322 322 322 324 326 329 330 331 329 331 332 333 334 332 330
311 311 310 306 307 308 310 310 310 311 313 314 314 313 313 314 315 316 316 316 318 319 320 321 322 321 322 323 322 324 324 323 323 324 325 325 326 323 320 320 323 322 323 325 327 328 329 330 330 328 328 329 327 331
308 306 305 306 308 309 312 311 313 313 313 314 314 315 316 316 317 317 317 317 318 319 319 319 320 320 320 322 322 323 323 325 325 325 325 324 325 323 320 318 322 323 321 321 321 324 327 328 327 327 328 331 331 331
306 305 305 306 309 310 311 311 312 313 313 314 315 317 319 319 320 320 319 319 319 318 319 320 319 319 322 322 323 325 326 326 326 326 326 324 324 326 326 323 324 325 323 321 321 323 322 326 325 326 328 330 330 330
306 305 308 308 309 310 309 312 313 314 315 317 318 319 320 320 319 319 320 321 319 320 322 322 323 324 324 323 325 327 328 328 328 326 324 324 324 323 324 324 323 324 324 324 322 321 322 321 324 324 324 325 325 326
308 310 310 310 309 311 312 313 315 316 317 319 320 321 321 320 320 321 323 320 321 321 323 324 324 324 326 327 327 327 326 326 326 326 328 323 323 324 323 323 323 322 322 325 324 322 321 321 320 320 323 323 322 324
308 309 310 310 312 313 314 316 317 318 319 320 320 321 322 321 323 323 324 324 325 326 326 325 324 326 326 325 323 327 327 324 324 321 322 322 323 323 323 323 324 324 324 324 325 325 323 322 321 321 320 319 320 322
309 311 311 313 314 315 317 318 318 319 319 320 320 319 321 322 323 324 323 323 325 325 325 322 322 323 322 321 322 324 321 319 319 319 319 319 319 319 320 322 323 323 323 324 323 322 323 323 322 322 322 322 321 320
311 314 314 313 315 317 318 317 317 318 318 318 319 321 322 324 325 324 321 323 321 323 324 324 323 321 320 320 322 322 320 319 318 318 318 317 318 318 318 319 319 319 321 321 320 319 319 319 319 320 320 320 320 320
313 315 315 315 315 317 318 317 316 317 317 318 320 323 324 324 325 325 324 320 325 325 324 324 325 324 321 320 319 319 319 319 319 319 320 319 320 319 318 317 317 317 318 318 318 318 318 318 318 318 318 318 317 317
314 315 316 317 317 316 316 315 315 317 319 320 322 324 324 324 324 324 322 323 321 320 322 322 322 320 319 319 320 320 320 319 319 320 319 320 320 320 319 319 317 315 316 317 317 318 318 318 318 317 317 317 317 317
315 316 317 317 316 315 315 316 318 320 321 322 322 323 324 323 322 321 322 321 319 318 318 318 318 318 319 319 319 319 319 318 320 320 320 319 319 320 321 320 318 317 318 318 318 318 318 318 318 318 318 317 317 316
314 316 317 315 315 317 319 320 321 321 322 323 324 321 321 322 323 322 321 320 319 319 319 319 319 319 319 319 320 320 320 320 320 320 319 319 319 319 319 320 320 320 320 318 319 318 318 318 318 318 317 316 315 316
317 318 317 318 320 321 321 323 325 325 324 323 321 320 319 322 321 319 320 320 319 319 319 320 320 321 321 320 319 318 320 320 321 321 321 321 319 319 320 319 318 318 318 320 319 319 319 319 318 317 318 316 316 315
317 317 318 320 322 323 324 325 324 324 324 322 320 318 320 321 320 322 321 321 321 320 321 321 320 320 320 317 319 321 321 319 318 318 316 315 315 317 319 319 319 319 319 319 319 320 319 318 318 318 317 316 314 313

GFSWCAN_850_thetae_201.txt.gz
Theta_e
316 315 314 316 318 317 315 317 319 319 319 321 321 322 321 318 315 314 321 320 319 320 320 320 323 323 324 325 327 326 326 327 329 332 331 331 332 332 332 332 336 333 335 334 336 337 337 335 338 342 336 335 336 333
319 317 316 316 317 317 316 317 319 319 319 320 320 321 320 317 314 313 314 315 318 319 320 321 321 321 321 322 322 324 324 324 326 327 328 328 329 328 329 331 329 332 333 333 335 336 335 333 333 335 331 331 333 333
319 319 318 318 318 318 317 318 319 320 319 319 320 320 320 316 314 313 312 314 316 318 318 320 322 324 323 323 321 322 322 323 324 326 327 327 329 327 328 328 328 327 328 328 330 334 330 331 336 333 333 333 330 331
317 318 318 319 318 318 318 318 319 320 318 319 320 320 320 316 314 312 311 315 317 318 318 323 323 323 324 322 322 321 322 322 322 322 325 326 326 325 326 326 327 326 325 327 326 329 328 330 332 332 331 330 329 330
316 316 317 318 318 318 318 319 320 319 318 319 320 320 318 315 314 311 316 316 317 316 318 318 315 321 321 321 321 321 322 322 323 323 324 325 325 325 324 324 325 325 327 326 328 327 327 327 327 328 328 328 326 326
313 312 313 317 318 317 317 318 319 318 318 319 319 318 317 313 313 310 318 317 317 317 316 317 317 317 322 322 321 322 323 323 324 323 325 324 324 324 325 325 325 323 324 326 327 325 325 326 326 326 326 328 328 328
309 309 309 313 316 316 317 318 318 319 319 318 318 317 316 314 311 310 316 318 317 315 316 317 319 321 320 321 322 322 324 324 324 324 324 324 324 324 325 325 324 325 325 324 324 324 324 325 325 325 324 324 326 327
307 307 308 313 315 316 317 318 318 318 318 317 317 316 314 312 309 310 314 312 313 311 315 317 319 320 322 322 323 324 325 325 325 324 324 325 324 324 325 325 325 326 324 323 322 322 321 322 323 324 324 324 325 328
307 308 311 314 315 316 318 318 317 316 317 317 317 314 311 311 314 317 317 316 313 316 317 318 320 326 322 322 323 323 323 325 324 325 326 325 326 327 326 325 326 326 324 322 321 321 322 322 324 324 325 325 325 327
307 310 313 314 316 317 318 317 316 315 316 316 313 312 315 316 316 313 315 316 315 315 315 315 316 319 319 322 323 325 325 326 326 326 325 326 326 325 326 326 324 323 324 324 324 324 325 325 324 325 325 325 325 327
308 310 313 316 316 317 317 316 315 315 315 313 310 313 316 314 313 316 317 317 318 319 318 318 317 318 320 325 326 324 326 325 326 328 327 327 329 329 325 325 325 325 326 325 324 325 325 326 326 325 325 325 326 325
309 312 314 315 316 315 316 314 314 315 314 311 313 314 314 315 316 317 319 319 321 321 319 320 320 319 322 324 324 323 325 324 326 324 327 327 329 327 326 324 324 323 324 324 325 325 325 326 326 327 326 326 325 325
310 314 315 315 315 315 313 314 315 314 311 312 310 312 314 315 315 317 318 322 323 321 320 321 323 323 324 324 323 323 324 325 323 326 327 328 327 325 322 323 322 323 323 323 324 323 324 327 329 328 327 326 325 327
312 314 314 315 315 313 314 314 313 311 308 311 312 311 315 317 317 318 318 320 319 321 322 322 322 323 324 324 323 324 324 325 327 328 327 329 327 324 324 325 324 322 321 322 323 324 326 329 330 329 328 327 326 327
313 314 314 314 314 314 314 313 311 309 310 312 314 314 315 315 316 317 317 318 319 319 320 321 322 323 324 325 324 325 327 327 328 329 328 327 326 326 326 325 322 322 322 323 322 325 329 330 330 329 328 329 327 327
313 312 313 314 314 313 312 311 308 307 309 312 314 315 316 317 318 317 317 317 317 318 319 321 323 324 325 326 326 325 327 328 328 327 326 327 326 324 326 323 323 322 323 324 325 329 330 330 330 330 328 329 327 327
312 312 314 314 312 311 309 307 305 308 311 313 314 314 315 317 317 317 317 318 317 319 323 322 324 325 325 328 328 328 329 327 326 325 324 324 324 325 323 323 323 322 324 325 326 329 324 327 329 330 329 327 326 326
312 313 313 311 311 307 305 306 308 310 311 312 314 314 315 315 315 316 316 317 317 318 320 322 321 324 325 327 327 326 324 323 324 324 325 324 324 324 322 320 322 322 322 323 326 330 329 324 323 323 327 329 328 326
312 313 311 311 309 307 307 308 309 311 312 313 314 314 314 314 314 315 316 316 316 317 320 320 323 324 325 324 323 322 324 325 324 324 325 325 324 322 321 320 320 323 321 322 324 328 330 330 328 328 329 330 328 328
311 311 311 310 308 310 310 310 310 312 312 314 314 314 315 314 315 315 315 316 317 318 319 321 321 321 322 322 321 322 324 324 323 326 325 324 325 325 325 321 322 325 321 321 321 326 327 326 328 328 328 325 326 328
309 307 307 307 308 309 311 312 313 313 313 314 314 315 316 316 316 315 316 317 318 319 319 319 320 320 319 321 322 325 323 325 325 326 326 325 325 326 325 324 325 325 322 321 322 325 326 327 328 328 330 332 330 332
307 306 306 308 308 310 311 312 313 313 313 314 315 315 318 319 318 319 318 319 318 319 319 319 320 320 321 320 321 324 323 324 325 327 325 324 323 323 324 323 324 324 323 321 321 324 325 325 326 327 328 328 330 329
306 306 307 308 310 311 310 312 313 313 315 316 317 319 321 321 320 320 321 320 320 320 320 320 320 322 322 323 323 324 324 324 328 324 324 323 323 323 323 322 321 323 324 322 321 320 322 323 323 324 324 324 324 324
307 308 310 310 310 310 312 313 314 315 317 319 321 321 321 320 320 320 322 322 322 321 320 321 320 323 325 325 325 325 325 325 327 326 324 324 322 323 324 324 324 324 324 324 321 321 320 320 320 320 321 322 322 322
309 310 311 309 312 312 314 316 317 318 320 320 321 322 323 321 325 325 326 324 324 324 324 325 324 324 324 323 321 321 324 325 323 325 323 324 322 323 322 321 323 323 323 323 323 322 322 322 320 320 321 320 320 320
305 310 311 313 314 315 316 318 319 319 320 319 319 319 320 322 323 324 322 322 323 323 323 322 322 322 321 321 323 323 321 320 319 319 319 321 322 322 322 322 322 321 320 320 320 321 321 321 320 320 320 319 319 319
310 313 313 313 315 317 318 318 318 319 319 319 319 321 322 324 321 319 319 322 324 325 324 319 320 321 320 321 322 320 318 318 317 317 316 316 317 318 319 319 322 319 318 318 319 319 320 320 319 320 319 317 317 317
313 315 316 315 316 316 318 318 318 318 318 319 320 322 321 324 321 318 321 322 322 324 323 322 320 320 321 321 322 319 318 319 319 319 319 319 318 316 317 318 318 318 318 318 318 318 318 318 318 318 317 317 318 318
314 315 316 317 318 318 318 317 317 318 319 320 322 322 322 323 323 323 322 324 325 325 322 323 323 322 320 319 320 320 320 320 319 320 320 320 320 318 316 314 315 317 317 318 318 318 317 317 317 317 316 316 316 316
315 316 317 318 318 318 317 316 318 318 319 319 320 321 323 324 324 322 323 324 324 321 320 321 320 320 320 320 319 319 319 320 320 320 320 321 321 320 319 317 317 318 317 317 318 318 318 318 317 317 316 316 317 317
315 316 318 318 317 318 318 319 320 320 320 322 322 323 322 322 322 322 320 319 319 319 319 320 320 319 320 320 320 319 320 320 320 319 319 319 320 320 320 320 319 319 319 320 319 318 318 318 317 316 315 315 316 316
317 319 318 319 321 321 321 322 319 320 322 322 322 321 321 322 323 321 321 321 320 320 321 321 321 321 320 320 320 320 321 321 321 319 320 321 320 320 319 319 319 320 319 319 318 318 318 317 318 318 316 316 315 316
318 318 319 320 322 323 323 324 323 322 323 320 321 323 321 321 323 322 322 320 320 321 321 320 320 320 319 319 320 321 321 320 319 318 317 316 315 319 319 320 320 320 319 319 319 319 319 318 317 317 315 314 313 312

GFSWCAN_850_thetae_207.txt.gz
Theta_e
317 317 320 319 318 317 317 318 318 319 318 318 320 319 319 320 321 318 314 314 313 316 316 317 319 320 321 322 321 322 321 321 320 321 323 323 324 324 324 323 325 326 327 328 327 333 335 330 330 332 332 335 334 333
319 319 319 319 319 318 318 318 318 319 319 319 319 318 319 319 321 320 315 311 311 312 314 315 315 317 317 320 321 320 321 320 321 320 320 320 323 320 320 324 320 324 320 322 324 326 326 332 333 331 331 331 331 331
318 320 319 319 319 318 318 318 318 319 319 319 319 318 319 319 320 319 315 312 315 315 316 317 321 320 321 318 318 319 320 321 321 322 321 319 322 318 322 320 323 320 321 320 320 323 329 328 326 327 327 328 330 329
318 320 319 317 317 317 317 318 318 318 318 318 319 318 319 319 319 317 313 314 316 316 314 317 320 320 319 318 322 321 320 320 321 321 320 317 321 320 318 319 319 320 320 320 320 321 324 327 324 324 325 325 324 324
318 318 317 316 316 316 316 317 317 317 317 318 318 318 318 319 318 315 312 315 317 316 315 317 315 317 317 318 320 322 322 322 321 321 317 317 319 318 317 316 317 320 319 320 321 322 323 324 323 323 324 324 323 322
315 315 315 315 315 315 314 314 314 315 316 318 318 317 318 318 317 315 316 316 317 316 315 310 313 314 316 318 320 321 322 321 321 322 320 321 322 321 319 318 319 322 323 322 322 323 323 324 324 324 323 321 322 322
313 313 313 313 313 312 311 311 312 314 317 318 318 316 317 318 317 315 313 318 317 314 314 311 311 315 319 319 321 320 320 321 322 323 322 321 322 321 317 321 320 322 322 322 322 323 324 324 323 322 322 323 323 323
312 312 311 311 311 310 309 309 313 313 317 318 317 316 317 317 316 312 313 313 310 312 311 310 311 316 319 321 320 321 321 322 323 323 321 320 321 321 320 320 322 322 324 324 324 324 323 323 323 323 323 324 324 324
310 310 309 309 309 308 307 310 313 314 317 317 316 316 316 313 314 318 315 314 315 314 315 313 312 315 317 319 323 323 323 320 321 320 319 321 318 321 320 321 322 324 325 324 323 322 322 322 322 323 323 324 324 325
309 308 307 307 307 308 311 311 313 315 315 315 315 315 314 315 316 315 313 313 313 312 313 313 313 311 314 316 321 321 322 318 320 318 322 319 319 322 323 323 324 323 321 322 322 322 321 321 321 322 322 322 322 324
307 307 306 306 307 309 311 313 314 315 314 314 315 313 316 316 315 313 315 315 315 315 315 315 314 311 315 313 320 321 317 316 322 320 322 321 320 322 324 324 322 322 323 323 323 322 322 323 323 323 323 323 323 324
305 305 306 306 309 311 312 314 315 315 314 314 313 314 314 314 315 315 314 316 315 315 317 317 318 317 317 321 320 319 319 317 322 319 324 321 317 325 325 325 324 323 324 323 322 322 324 323 324 324 323 323 324 324
304 305 305 306 309 310 313 314 314 315 314 312 313 312 313 314 314 316 315 314 315 318 319 320 321 321 322 322 319 317 320 320 319 320 322 320 324 325 325 325 324 323 323 321 322 322 324 326 326 326 326 327 327 327
303 304 305 306 309 311 313 314 314 313 312 310 311 309 314 314 312 312 312 312 317 320 321 321 321 320 322 321 321 323 318 318 322 325 324 320 325 324 323 323 324 322 321 321 322 321 322 323 326 326 325 328 329 329
303 304 305 308 310 311 313 313 313 312 311 311 312 312 312 313 313 314 314 314 315 316 321 320 320 319 320 323 322 322 324 325 323 324 321 324 325 324 323 323 323 321 320 319 322 321 321 323 325 326 324 328 328 327
303 304 305 309 311 312 312 312 311 311 309 311 312 312 313 312 313 314 315 316 317 317 318 319 318 319 321 322 324 324 324 324 323 323 323 323 324 324 324 324 322 320 319 323 322 323 324 324 327 327 325 328 328 327
304 306 308 311 312 312 312 311 310 309 309 310 311 311 313 312 312 313 315 316 317 318 318 318 320 320 317 321 324 324 324 322 322 322 323 324 324 324 324 324 324 323 324 323 323 325 325 325 327 327 328 327 327 328
306 308 310 311 311 310 309 310 310 308 309 310 310 312 312 313 314 313 314 315 315 316 318 317 318 319 320 322 322 322 321 320 322 322 323 324 324 325 324 325 325 324 324 321 322 325 325 326 326 327 327 326 328 328
308 309 310 311 310 309 309 309 308 310 310 310 311 311 311 312 312 313 314 314 314 314 316 318 318 316 316 318 320 320 320 321 321 322 323 323 323 324 324 324 324 324 322 324 324 324 324 325 325 327 328 326 327 326
309 309 310 310 310 310 308 308 309 309 311 312 312 312 312 312 313 313 313 314 314 315 317 316 315 317 319 320 320 319 319 321 321 321 323 322 324 324 323 323 323 322 322 321 323 323 323 325 326 326 326 329 329 326
309 307 308 309 310 311 311 310 309 310 311 311 312 313 314 314 314 314 314 314 314 314 315 316 316 316 316 316 316 318 318 320 322 324 324 324 323 322 321 321 323 321 321 320 321 322 323 322 323 326 327 326 324 324
306 306 308 309 310 310 310 312 312 313 313 313 312 312 312 313 316 316 316 315 315 315 314 314 315 315 316 317 316 318 320 322 322 323 324 322 322 322 321 321 323 321 320 319 320 321 321 323 323 324 325 326 326 327
306 306 308 309 310 310 311 311 312 312 311 313 314 315 315 317 318 319 319 318 318 317 317 316 315 316 316 317 318 318 320 321 323 323 322 322 323 323 323 322 323 321 320 319 319 320 319 320 322 323 324 324 324 325
307 308 309 309 309 308 310 311 311 313 314 316 316 319 319 320 319 319 316 318 321 322 321 319 318 318 319 320 321 321 323 323 323 322 321 321 322 323 323 323 322 321 320 320 319 319 318 319 319 320 322 322 322 322
309 309 311 310 310 310 312 313 313 315 317 317 319 319 319 320 318 319 319 321 322 322 322 322 321 323 321 321 321 323 323 323 322 320 320 320 321 321 320 320 320 319 318 318 319 319 319 320 320 319 318 318 317 316
305 308 310 310 310 312 314 316 316 317 317 318 317 316 319 320 321 321 320 320 320 323 323 322 322 322 322 322 321 320 322 321 322 321 318 318 319 319 320 320 319 319 317 317 318 318 318 318 318 318 318 318 318 318
305 309 310 311 312 313 315 316 316 315 318 317 315 320 318 320 321 318 319 322 323 323 322 320 321 322 321 322 321 319 321 323 322 321 320 317 317 316 317 318 319 319 319 316 317 317 317 317 316 316 316 316 316 316
310 312 313 314 313 314 316 316 314 314 315 317 318 320 320 321 320 320 321 322 322 321 320 320 320 321 321 318 317 316 317 319 318 318 318 318 318 318 317 317 317 317 317 316 316 316 315 315 315 315 315 315 315 316
312 314 314 314 315 316 317 315 315 316 318 319 317 317 319 321 322 321 321 321 320 320 320 320 320 320 320 319 317 318 318 317 317 316 317 317 318 318 317 317 317 317 317 317 316 316 315 315 315 315 315 314 314 313
313 314 315 316 315 315 316 317 317 318 319 319 318 319 320 321 322 323 322 322 321 321 321 320 321 320 320 319 318 318 319 319 319 318 316 315 315 316 316 318 318 317 317 315 315 315 316 316 315 315 314 314 314 314
315 315 316 317 316 317 317 317 317 318 320 320 321 321 322 320 321 322 321 321 320 320 320 320 320 320 320 320 319 319 319 319 319 319 320 319 317 318 318 317 317 317 317 318 317 316 316 316 316 315 313 314 315 315
316 317 317 317 319 319 318 319 319 319 322 321 322 320 320 320 320 321 321 321 321 321 321 321 320 320 320 320 319 320 319 319 319 319 319 319 319 319 317 318 318 318 318 318 318 318 316 316 316 316 315 314 314 315
317 318 318 318 320 321 321 318 318 320 322 321 321 320 320 321 322 321 320 321 320 321 321 320 320 320 320 320 320 320 320 319 319 320 320 320 320 319 319 319 319 317 318 318 318 317 316 316 316 316 316 316 315 314

GFSWCAN_850_thetae_210.txt.gz
Theta_e
316 316 317 317 319 319 319 317 318 318 319 319 319 319 318 318 319 320 317 315 313 314 316 315 318 318 318 320 319 321 318 320 319 320 322 322 323 322 323 322 324 323 325 325 324 331 333 328 329 332 330 332 334 333
316 316 316 319 319 319 319 318 318 318 318 319 318 319 318 318 319 320 317 314 313 314 316 317 316 316 316 316 319 319 319 319 320 318 318 318 322 319 318 324 319 323 319 321 323 324 324 330 332 331 330 328 330 330
315 316 316 319 319 319 319 318 318 318 318 318 318 319 318 319 320 319 318 315 315 315 317 317 319 320 318 317 317 318 319 320 321 321 319 317 321 316 321 319 321 319 318 319 320 321 328 326 324 324 323 324 324 324
315 316 316 318 319 318 317 317 317 317 318 318 317 318 317 319 319 318 316 313 315 316 314 318 318 317 317 318 318 318 319 320 320 321 319 315 320 319 318 317 318 319 319 318 318 319 323 324 325 324 323 323 323 323
315 316 317 318 318 317 316 316 316 316 317 316 317 318 318 318 319 318 315 314 316 315 315 317 316 314 313 315 317 320 320 318 319 320 316 316 317 316 315 314 316 319 318 319 319 320 322 322 322 322 323 323 324 322
314 315 315 315 316 316 315 315 315 315 314 314 317 318 317 317 318 316 313 316 316 317 315 310 314 314 317 318 317 318 321 319 319 320 319 320 321 320 318 317 318 320 321 322 321 322 322 322 323 323 324 323 323 322
313 313 313 313 313 313 313 313 312 312 312 313 317 318 317 316 317 316 313 315 316 314 312 310 310 314 318 318 319 318 319 319 320 320 319 320 321 320 315 320 321 321 321 321 322 321 321 323 323 324 323 323 322 323
312 312 312 312 312 312 311 311 310 311 312 314 317 317 316 316 317 313 313 313 311 310 311 308 309 314 318 320 319 320 320 320 321 321 320 319 319 318 319 319 321 322 322 323 324 324 324 323 323 322 321 321 321 322
311 311 311 310 310 310 310 308 309 311 312 315 317 316 316 314 313 317 316 314 314 313 313 311 311 312 316 316 321 322 322 318 320 318 318 319 316 319 319 321 322 323 325 323 321 321 321 322 322 322 322 322 322 322
310 309 309 309 308 308 307 308 310 312 314 314 315 315 313 315 316 315 313 313 312 313 313 312 312 310 312 313 318 320 321 319 320 317 320 317 318 321 322 322 322 323 321 322 323 323 323 322 322 323 323 323 323 323
307 307 307 307 307 306 306 310 311 313 314 314 314 313 316 316 315 313 314 314 313 314 313 313 313 310 314 311 316 319 319 314 319 318 320 319 318 320 324 323 323 323 323 323 324 323 322 321 321 322 324 324 325 325
305 305 306 306 306 306 309 311 313 314 314 314 313 313 314 314 314 313 312 314 313 314 315 315 317 316 316 316 319 317 317 315 321 317 322 322 317 324 324 324 325 325 324 323 322 321 321 322 322 321 322 324 325 327
303 304 304 305 306 308 310 311 313 314 314 313 313 312 312 313 311 317 313 312 312 316 318 318 320 319 318 321 318 314 318 317 317 319 321 319 323 324 324 324 323 323 323 321 321 320 319 322 322 322 321 325 328 326
302 303 304 304 306 309 310 312 313 313 313 312 311 309 311 312 311 310 311 311 316 318 316 320 321 319 322 320 320 322 317 316 320 323 324 318 323 323 324 323 323 323 322 322 320 322 323 324 323 324 324 326 328 327
302 302 303 304 306 309 310 312 312 312 312 310 311 312 310 313 313 313 313 313 314 314 315 320 319 317 316 319 320 322 322 324 321 321 319 322 322 323 324 324 324 324 323 323 323 323 321 324 324 324 325 329 327 327
301 302 303 304 305 309 310 311 311 311 310 310 311 311 312 311 311 313 313 314 315 316 317 318 316 317 318 320 322 323 323 322 323 322 321 321 323 323 323 324 324 324 324 324 323 321 322 324 325 325 325 326 326 327
302 303 304 304 307 310 311 311 310 310 310 310 311 311 312 311 312 313 313 315 315 317 317 317 319 318 315 321 321 322 323 320 320 320 321 322 322 322 323 323 324 325 324 323 323 324 324 324 324 325 326 326 326 326
304 304 306 306 309 310 309 309 310 310 309 310 310 312 311 312 312 313 313 314 314 315 317 317 317 317 320 322 319 321 320 320 320 320 320 321 322 322 322 323 324 324 323 321 322 323 323 323 324 325 326 328 326 326
305 305 307 309 309 309 309 309 310 309 310 310 311 311 311 311 312 313 313 313 313 314 315 318 316 314 314 315 318 319 319 319 319 320 321 321 322 324 323 323 323 323 322 320 320 322 323 323 324 325 326 326 327 326
306 308 309 309 309 309 309 309 309 310 310 311 311 311 311 312 312 312 312 313 313 313 314 314 313 316 318 318 319 319 318 317 317 317 319 321 324 323 321 320 322 322 321 319 320 321 323 322 324 325 325 326 327 327
307 308 308 308 308 310 310 309 309 310 311 311 311 311 312 312 312 313 312 313 312 313 312 314 314 314 315 316 316 316 316 316 317 320 322 322 323 322 321 320 323 321 319 319 319 320 322 321 322 324 324 324 326 327
307 306 307 308 309 310 310 311 311 312 312 312 312 312 311 311 314 314 314 312 313 313 313 314 313 314 315 315 314 315 316 317 317 319 322 323 322 322 323 322 323 320 319 319 319 319 321 321 323 322 323 322 324 325
306 306 307 308 310 310 311 311 312 311 310 311 312 313 312 314 317 317 317 316 316 317 316 316 315 314 314 315 315 316 316 317 319 321 323 322 322 322 323 322 321 320 319 318 318 318 321 321 321 321 320 319 320 320
305 307 308 309 309 309 310 310 310 311 313 313 314 318 318 319 319 319 317 317 319 321 320 320 319 317 316 316 316 317 319 320 321 322 321 321 322 322 321 321 319 319 319 318 319 319 320 320 320 319 318 317 319 319
309 308 310 309 310 309 309 312 311 312 315 316 317 319 318 319 318 319 319 320 321 321 322 322 321 321 319 320 321 322 322 320 318 317 319 321 320 319 318 317 317 318 319 319 318 318 317 317 316 316 315 314 314 313
306 309 309 309 309 310 311 314 314 315 316 317 317 316 319 318 320 321 319 319 320 322 322 320 322 323 321 321 321 322 322 319 318 318 319 319 319 318 318 317 317 317 317 317 317 318 317 317 317 317 316 315 314 314
304 308 309 310 311 312 314 314 315 314 317 317 313 319 318 320 321 319 319 322 322 321 320 320 320 319 319 318 319 321 321 320 319 318 318 318 318 318 318 318 317 316 316 316 316 316 315 316 316 316 316 315 313 310
309 311 311 312 312 313 315 316 314 313 313 316 318 320 320 321 320 319 321 322 320 320 321 321 321 320 320 318 319 321 321 321 321 319 317 317 316 317 316 316 316 315 315 315 315 315 315 315 315 314 315 315 315 311
311 313 313 313 313 314 315 314 314 316 317 319 318 319 319 320 321 321 320 320 320 320 320 320 320 319 317 316 317 319 317 317 318 318 318 318 317 317 317 316 316 316 316 316 316 315 315 314 314 314 312 312 311 311
312 313 313 315 315 314 316 316 316 317 318 319 319 319 320 321 322 321 320 320 320 320 320 320 321 320 318 318 317 317 317 317 316 315 315 316 316 317 317 317 316 315 315 315 315 315 314 314 314 314 314 313 313 313
314 314 315 316 316 316 317 317 318 319 319 320 321 321 320 320 320 320 320 321 321 320 320 320 319 320 320 319 318 318 318 318 318 318 317 317 317 316 317 317 317 317 317 315 315 315 315 315 314 314 315 315 314 314
314 316 316 317 318 318 317 317 319 320 321 321 321 320 320 320 320 320 321 320 320 319 320 320 320 319 319 320 320 319 319 319 319 319 319 319 318 318 318 318 318 318 318 317 317 317 316 316 315 314 313 314 314 314
317 317 318 318 319 319 320 318 318 320 321 321 320 319 320 320 321 321 321 321 320 320 321 321 321 320 320 320 319 319 319 319 319 319 319 319 319 319 318 318 317 318 318 318 318 318 317 317 316 316 315 315 314 313

GFSWCAN_850_thetae_216.txt.gz
Theta_e
313 315 315 315 316 316 315 317 318 319 318 318 319 319 317 318 318 318 319 319 318 320 321 320 321 322 323 323 325 325 325 326 327 329 330 330 330 331 331 331 332 333 333 333 334 334 334 332 334 337 339 337 336 337
312 314 313 314 315 315 315 317 319 318 318 318 318 318 317 317 318 318 317 319 319 317 321 319 318 319 320 321 321 322 324 326 327 329 330 330 331 330 331 331 330 330 331 334 333 335 331 329 332 334 332 331 331 330
313 313 313 313 313 314 315 317 318 318 318 318 318 318 316 317 318 318 318 318 318 319 321 321 321 319 319 318 319 322 323 323 324 324 325 327 329 328 329 329 329 328 327 328 329 327 327 326 328 329 329 328 327 326
313 313 313 313 313 314 315 317 318 317 317 317 317 317 316 317 317 317 317 317 317 319 322 322 318 320 318 318 319 319 320 321 322 323 324 326 326 324 325 327 328 325 327 326 327 326 324 323 324 324 326 326 325 325
313 313 313 313 314 315 317 318 318 316 315 316 316 317 315 317 317 317 317 316 317 318 321 320 319 318 316 317 317 317 318 321 323 324 325 326 324 324 324 325 325 324 325 325 326 324 325 325 324 324 324 324 325 326
312 312 312 313 314 314 315 316 316 315 315 315 316 316 314 317 317 317 318 317 318 315 317 321 319 318 316 319 319 318 320 320 321 323 324 324 323 323 325 327 326 324 324 324 325 324 324 324 324 324 326 326 325 325
312 312 312 313 313 314 314 314 314 314 314 313 314 314 313 317 317 317 317 317 316 313 316 319 321 317 318 320 319 319 320 322 323 324 324 324 324 323 326 327 325 324 324 325 325 325 325 326 327 326 325 325 325 325
308 310 312 312 312 313 313 312 312 312 312 312 312 312 316 317 316 316 315 313 314 313 314 320 321 318 319 323 324 322 321 321 322 323 324 324 325 325 327 325 325 324 325 325 327 326 326 325 325 325 325 325 325 325
305 307 311 311 311 312 311 311 311 311 311 310 310 315 316 316 315 316 314 315 315 313 318 319 321 322 317 320 323 324 324 325 324 325 325 325 325 327 326 325 326 325 325 325 326 325 325 325 325 325 325 325 325 325
304 305 309 310 310 310 310 310 309 310 309 311 314 314 316 315 314 316 315 316 314 315 316 318 318 320 317 320 323 325 325 326 328 326 326 327 326 324 325 327 327 326 326 326 326 326 325 325 325 325 325 325 325 325
303 304 307 309 309 309 309 309 308 309 311 313 315 315 315 316 316 317 318 317 317 316 317 317 317 320 318 321 322 325 327 325 326 327 325 325 326 328 327 327 327 327 326 326 325 325 325 325 325 326 325 326 325 325
302 303 305 307 308 308 307 307 309 311 313 314 314 313 315 316 318 318 318 318 317 318 319 320 320 319 320 319 322 324 325 324 325 323 325 326 330 328 327 327 326 326 326 326 325 325 325 325 326 326 326 326 326 326
301 302 304 306 306 307 306 307 310 312 313 313 312 313 316 317 319 318 318 319 318 319 320 321 323 322 321 321 323 324 324 324 323 325 325 327 328 327 326 326 326 326 326 325 325 325 325 326 326 326 325 326 325 325
301 301 302 304 305 305 306 308 311 312 312 312 312 311 318 319 318 319 319 319 319 321 321 321 323 323 323 324 323 325 324 324 326 327 326 330 326 326 327 326 326 325 325 325 325 325 326 326 325 325 324 324 324 324
301 301 302 303 304 305 306 309 311 312 312 312 312 317 318 317 317 317 317 317 317 317 317 320 322 321 322 323 324 324 325 326 326 327 329 325 325 325 324 324 325 326 326 326 326 325 325 324 324 323 324 323 324 325
301 301 302 303 303 305 308 310 310 311 312 311 311 315 316 317 317 317 317 317 317 316 317 320 321 322 322 323 324 325 325 325 327 325 324 324 324 324 325 326 326 326 325 325 325 324 324 324 322 322 323 323 324 325
301 302 303 303 304 305 308 309 310 310 311 310 311 313 316 317 317 317 316 317 317 318 321 320 321 321 321 323 324 324 326 326 324 324 324 324 324 325 325 326 326 325 324 325 324 323 323 323 323 322 322 323 323 323
301 303 303 304 304 305 306 308 309 310 310 310 312 315 315 316 316 316 316 317 317 317 319 321 320 321 321 322 323 324 323 323 322 321 321 321 324 325 326 326 325 325 325 324 323 323 322 321 322 322 323 323 325 324
302 303 304 306 305 307 307 308 309 310 310 311 313 314 315 315 315 315 316 316 316 317 317 318 320 321 321 319 319 319 319 320 320 319 319 320 323 325 326 326 325 325 325 324 323 322 320 320 321 321 322 325 325 325
303 303 304 306 306 309 309 309 309 309 312 313 313 314 314 315 315 315 315 315 315 316 316 317 318 318 319 319 319 319 321 321 319 318 318 318 320 323 325 325 324 324 323 322 322 320 319 319 319 319 321 323 323 325
303 305 306 306 306 308 309 309 309 310 311 312 313 314 315 315 315 315 315 315 315 316 317 316 316 316 316 317 317 319 319 320 319 317 317 318 320 324 325 324 323 322 321 322 320 319 318 317 317 318 318 320 321 322
305 306 307 307 307 307 309 309 310 310 310 313 314 314 314 315 315 316 316 315 315 315 314 314 315 315 315 316 316 317 316 316 316 318 317 320 324 325 324 323 321 322 321 319 319 319 318 318 317 317 317 316 317 318
306 307 307 307 308 308 310 310 310 310 312 313 314 315 316 316 316 316 317 316 316 316 316 317 317 317 317 317 317 317 317 318 317 317 320 321 325 324 322 321 321 321 320 318 317 318 318 318 318 318 317 316 316 315
307 307 307 308 308 309 310 310 310 312 311 313 314 316 318 319 317 318 321 321 321 321 320 320 322 322 320 319 317 317 317 317 318 320 320 324 323 321 321 321 320 319 318 317 316 316 316 316 317 318 317 316 316 316
306 307 308 308 309 310 310 311 311 312 314 315 316 317 318 317 320 322 323 322 321 320 321 324 321 319 320 319 319 321 318 321 322 323 322 321 320 320 320 320 319 319 317 318 317 316 315 314 312 313 314 314 313 311
309 308 309 310 310 311 312 314 315 315 316 316 317 316 318 320 320 321 321 321 320 322 322 321 322 323 320 323 322 323 322 321 320 316 318 318 318 319 319 318 318 318 318 317 317 316 313 313 313 311 309 308 308 309
309 311 311 311 312 313 314 315 315 314 316 318 319 319 319 318 315 316 318 321 320 320 320 321 323 321 320 319 318 318 317 318 318 318 319 319 318 317 317 317 317 317 317 317 317 316 314 313 313 312 312 311 310 309
310 313 314 313 313 312 314 316 318 318 318 318 318 319 317 317 321 318 319 320 319 320 318 318 319 316 318 318 319 319 320 320 320 319 318 318 318 318 317 317 316 316 317 316 316 316 315 314 313 313 312 312 311 311
312 313 314 314 313 315 316 317 317 317 315 315 318 322 321 320 319 318 319 321 322 322 321 320 320 320 320 321 320 319 319 318 318 319 318 317 317 317 317 317 317 317 316 315 314 315 315 315 314 313 313 313 312 311
315 314 315 316 317 318 316 315 315 315 315 318 321 322 321 321 320 322 323 323 322 322 320 319 319 319 319 319 319 320 319 319 318 318 319 318 318 317 317 317 317 317 316 315 315 313 313 314 314 314 314 314 313 313
314 314 315 316 317 318 319 318 318 318 321 323 323 322 322 322 322 322 322 323 323 322 321 320 319 319 319 319 319 319 318 318 318 318 318 318 318 318 319 318 318 317 317 316 316 316 316 316 316 315 314 314 313 313
315 316 316 317 319 320 319 321 322 322 323 324 323 322 322 322 321 324 322 322 322 322 321 321 320 320 320 320 320 319 319 320 319 319 318 318 318 318 318 318 318 317 318 317 316 318 317 317 317 317 316 316 315 314
316 316 317 319 321 322 322 322 322 321 323 322 323 322 323 322 322 323 323 321 322 323 323 323 323 322 321 322 321 319 320 319 319 319 319 319 318 318 319 319 319 317 317 318 318 316 317 318 317 316 317 317 315 314

GFSWCAN_850_thetae_219.txt.gz
Theta_e
313 313 312 314 314 315 315 315 316 318 319 319 319 319 318 317 317 318 321 318 320 322 323 324 324 326 326 326 328 329 328 328 329 331 332 333 333 333 333 333 334 336 336 336 335 336 336 334 335 337 342 339 337 337
312 312 312 313 313 314 314 314 315 318 319 319 319 319 319 317 317 318 322 320 317 320 323 322 321 322 322 324 325 325 326 330 330 333 333 333 334 333 333 334 335 335 333 336 337 338 335 332 334 335 335 333 333 332
313 313 313 313 313 313 313 314 315 318 319 319 319 318 318 317 317 317 318 319 320 323 323 324 325 323 322 322 323 325 326 326 327 327 329 330 332 333 334 333 332 332 331 333 331 329 329 328 328 326 328 329 329 328
313 313 313 313 313 313 313 314 315 318 318 318 318 317 318 317 316 317 318 319 320 322 324 326 322 323 323 321 321 322 324 324 324 325 326 329 330 328 330 329 331 330 329 330 331 329 327 327 326 327 327 327 327 326
313 314 313 313 313 314 314 315 317 318 317 316 316 317 317 316 316 317 318 319 319 320 323 322 320 321 320 319 320 321 322 323 325 327 327 329 327 327 327 328 328 327 329 329 330 327 327 327 327 326 326 326 326 326
313 313 313 313 313 314 314 315 317 317 317 316 316 316 317 315 317 318 322 320 319 319 320 322 322 322 320 320 322 322 322 323 324 326 327 326 326 326 328 328 327 328 327 326 327 327 327 326 326 325 325 327 327 327
309 310 311 312 312 313 314 314 315 315 315 315 315 315 316 314 317 320 320 320 317 316 319 322 323 321 320 322 322 322 323 324 324 325 326 326 326 326 328 329 326 326 326 327 327 326 327 328 327 327 327 327 327 327
306 307 309 311 312 313 313 313 313 313 313 313 314 314 313 316 317 317 318 316 315 317 318 322 323 322 321 325 325 323 323 324 325 325 326 326 326 326 328 326 326 327 325 326 326 327 327 327 327 327 327 327 326 326
305 305 306 309 312 312 312 312 312 312 312 312 312 312 316 316 319 319 317 314 315 318 321 322 324 325 321 322 324 325 325 326 324 326 325 325 327 330 328 327 325 325 326 326 326 326 326 326 327 327 326 326 326 326
304 304 304 307 310 311 311 311 311 311 311 310 313 317 319 318 316 316 318 318 317 318 318 320 321 323 320 323 324 326 325 326 328 327 326 328 329 326 326 328 329 328 328 327 327 327 327 327 327 326 326 325 326 327
303 303 304 305 309 309 309 310 310 309 310 313 316 319 318 317 318 320 320 319 319 319 318 320 320 322 320 322 324 324 328 327 328 328 327 327 327 328 328 328 328 328 328 328 327 327 327 326 326 326 326 326 326 326
302 302 303 305 308 308 308 308 308 311 312 314 316 316 317 319 319 320 320 319 319 321 321 321 321 320 322 321 322 323 325 325 326 326 326 327 333 330 328 328 327 328 328 327 327 327 326 326 326 326 327 326 326 326
301 302 303 304 306 306 307 307 308 311 313 314 315 316 318 319 320 321 322 321 321 320 321 322 323 322 323 321 323 326 325 325 324 326 325 329 330 330 329 328 328 328 327 327 327 326 326 326 326 326 325 326 326 326
301 301 302 303 304 305 306 307 309 312 313 315 317 319 320 319 320 322 322 321 321 321 322 321 324 325 325 325 325 326 325 325 326 326 327 334 330 329 329 328 327 326 326 326 326 326 326 325 325 325 326 325 325 326
301 301 301 302 303 304 305 307 311 311 313 315 313 322 319 318 319 319 319 319 319 320 321 321 323 323 325 325 326 326 327 327 326 327 332 329 328 328 327 326 326 326 326 326 326 325 326 325 325 325 325 325 325 325
301 301 301 302 303 304 306 308 310 311 312 312 312 318 318 319 319 319 318 318 319 319 320 320 323 325 325 324 325 326 326 326 329 329 326 327 327 326 327 326 326 327 326 325 326 326 325 325 325 325 324 323 323 322
301 303 304 302 303 304 307 309 310 311 311 311 312 315 317 318 319 318 318 318 318 319 321 321 323 323 322 325 324 324 326 329 325 324 324 327 326 326 326 326 326 327 326 327 327 326 325 324 324 323 322 322 323 325
303 305 303 303 304 305 307 308 310 311 311 311 313 316 316 317 318 318 317 318 319 318 319 322 322 324 323 322 322 325 326 324 323 322 322 324 324 327 326 326 327 327 327 326 325 324 323 323 320 320 321 321 324 325
304 303 304 304 305 307 307 308 309 310 311 312 313 314 315 316 317 317 317 317 317 318 318 319 322 323 322 321 321 322 321 322 322 321 321 320 321 322 324 326 327 327 326 325 324 321 319 319 319 319 318 320 322 323
302 303 304 305 305 308 308 309 309 310 312 313 313 315 315 315 315 316 316 317 317 317 317 319 320 319 319 320 320 320 320 322 322 320 319 320 320 321 323 327 326 325 324 322 320 319 318 317 317 317 317 318 320 320
302 304 304 306 305 306 309 308 309 311 312 312 313 315 315 316 316 316 316 316 317 317 317 317 317 317 318 319 319 319 319 321 320 320 319 319 320 320 324 326 324 323 323 320 320 319 318 318 317 317 317 316 317 317
304 304 305 306 306 307 309 309 310 312 313 313 314 315 315 315 316 316 317 317 317 317 317 317 318 318 318 318 318 318 318 319 319 319 317 318 320 324 325 323 322 323 321 321 319 317 317 318 317 316 315 314 314 315
305 306 307 306 308 308 311 312 312 313 314 313 315 316 316 316 316 317 317 317 318 318 318 317 317 318 318 319 319 319 319 319 318 318 319 319 321 325 322 321 321 320 319 319 319 318 319 319 316 315 316 315 316 315
306 306 308 310 309 310 311 311 311 313 312 314 316 317 317 318 320 319 320 318 318 320 320 321 321 322 322 323 322 321 319 319 318 318 320 323 323 322 321 319 319 318 318 318 317 316 316 318 317 316 314 311 312 312
307 308 309 308 311 310 311 312 312 312 314 315 316 318 319 318 319 319 320 321 322 323 320 320 322 323 324 322 320 320 319 319 319 322 321 322 322 320 320 319 319 318 318 318 316 315 314 312 312 312 313 313 312 311
309 309 308 310 311 311 312 314 313 314 315 316 317 317 316 319 320 322 322 320 321 323 322 322 324 324 322 323 322 322 322 322 323 322 321 320 319 319 318 318 318 318 318 318 315 315 314 312 311 311 311 310 310 310
310 311 311 311 312 312 314 315 315 316 316 316 316 319 319 319 319 318 317 319 320 320 322 323 322 324 325 323 323 323 322 321 319 318 318 318 318 318 318 318 318 318 318 317 316 315 315 314 313 312 312 312 311 311
311 313 314 313 313 314 314 314 316 317 318 318 317 318 316 314 319 319 319 320 320 323 322 322 320 319 319 319 318 319 320 319 319 319 318 318 319 318 318 318 318 317 318 317 317 315 315 315 314 314 313 313 313 312
311 314 315 315 313 314 314 318 319 318 316 315 316 317 317 318 319 319 321 320 318 316 316 319 320 319 320 320 320 320 319 318 318 318 318 318 318 318 317 318 319 318 316 316 316 316 316 315 315 314 314 314 313 313
315 314 315 317 318 319 317 315 315 317 317 317 319 322 321 320 322 323 323 320 322 320 319 319 319 319 318 319 319 318 318 319 319 318 318 318 318 318 318 318 318 318 317 316 315 315 315 315 315 316 315 315 315 313
317 316 316 317 318 318 319 320 320 320 322 323 323 321 321 321 321 322 322 321 320 320 320 320 319 318 318 318 318 319 318 319 319 319 319 318 318 318 319 319 318 318 317 317 317 317 317 317 316 316 315 315 314 314
317 318 318 320 321 322 322 323 323 324 324 324 324 322 324 321 322 322 322 322 321 318 320 320 321 320 320 320 320 319 318 319 318 319 319 320 320 320 319 319 319 319 318 317 318 319 319 318 317 317 316 316 315 315
316 317 318 320 322 323 323 323 323 323 323 323 323 323 323 322 322 323 323 324 324 324 324 323 322 323 323 323 322 321 320 320 320 320 320 318 316 317 319 319 318 318 319 319 319 318 318 318 319 317 318 317 316 315